Location: Unspecified
(0.0000°N, 0.0000°E)
Time: 18:16:19
(UTC+00:00)

Hubble Space Telescope - Pass Details

Date: 20 January 2020
Orbit: 536 x 540 km, 28.5° (Epoch: 23 January)

Event Time Altitude Azimuth Distance (km) Brightness Sun altitude
Rises 19:07:49 0° 294° (WNW) 2,671 5.1 -13.3°
Reaches altitude 10° 19:10:06 10° 290° (WNW) 1,781 4.1 -13.9°
Maximum altitude 19:14:10 60° 210° (SSW) 614 1.3 -14.8°
Drops below altitude 10° 19:18:14 10° 130° (SE) 1,783 3.1 -15.8°
Enters shadow 19:18:23 - 130° (SE) 1,838 3.2 -15.8°
